{"data":{"norad_id":68496,"intl_designator":"2026-067CJ","name":"ICEYE-X73","alt_names":[],"object_type":"PAYLOAD","status":"ACTIVE","operator":null,"country":"POR","launch_date":"2026-03-30","launch_site_code":"AFWTR","launch_vehicle":null,"mission":null,"orbit_class":"UNKNOWN","rcs_meters":null,"size_class":null,"mass_kg":null,"dimensions":null,"purposes":[],"wikipedia_slug":null,"has_3d_model":false,"image_url":null,"decayed_at":null,"tle_current":{"epoch":"2026-05-24T21:32:32.429184Z","epoch_age_seconds":80995,"freshness":"FRESH","line1":"1 68496U 26067CJ  26144.89759756  .00002312  00000+0  23311-3 0  9997","line2":"2 68496  97.7598 103.5413 0003002  55.0706 305.0795 14.92087220  8254","mean_motion":14.9208722,"eccentricity":0.0003002,"inclination_deg":97.7598,"raan_deg":103.5413,"arg_perigee_deg":55.0706,"mean_anomaly_deg":305.0795,"bstar":0.00023311,"rev_number":825,"period_min":96.509103536186,"perigee_km":589.33618819574,"apogee_km":593.52071529297,"semimajor_km":6969.5654517444,"source":"CELESTRAK","updated_at":"2026-05-25T13:38:07.877629Z"}}}